Weather reports worldwide

Advertisment
Zadar/Zemunik, Croatia (14431): temperature & dewpoint: 17.01.2019 03:00:00 - 23.01.2019 03:00:00 (CET)Zadar/Zemunik, Croatia (14431): wind speed: 17.01.2019 03:00:00 - 23.01.2019 03:00:00 (CET)Zadar/Zemunik, Croatia (14431): wind direction: 17.01.2019 03:00:00 - 23.01.2019 03:00:00 (CET)Zadar/Zemunik, Croatia (14431): reduced air pressure: 17.01.2019 03:00:00 - 23.01.2019 03:00:00 (CET)Zadar/Zemunik, Croatia (14431): visibility: 17.01.2019 03:00:00 - 23.01.2019 03:00:00 (CET)
Date & Time tt [°C] td [°C] ff [km/h] ff [kn] dd ppp [hPa] vv [km]
23.01.2019 03:00:00 3,0 1,0 4 2 - - 10
23.01.2019 02:00:00 3,0 1,0 9 5 NE - 10
23.01.2019 01:00:00 3,2 0,9 11 6 NW 999,8 15
23.01.2019 00:00:00 3,0 0,0 18 10 E - 10
22.01.2019 23:00:00 4,0 -1,0 21 11 E - 10
22.01.2019 22:00:00 3,4 -0,5 22 12 E 999,7 25
22.01.2019 21:00:00 3,0 0,0 24 13 ENE - 10
22.01.2019 20:00:00 3,0 0,0 24 13 ENE - 10
22.01.2019 19:00:00 4,6 -1,2 22 12 E 1000,3 15
22.01.2019 18:00:00 4,0 0,0 22 12 E - 10
22.01.2019 17:00:00 4,0 0,0 22 12 ENE - 10
22.01.2019 16:00:00 4,5 0,0 22 12 E 1001,7 10
22.01.2019 15:00:00 4,0 1,0 22 12 ENE - 10
22.01.2019 14:00:00 4,0 1,0 22 12 ENE - 10
22.01.2019 13:00:00 3,9 2,3 14 8 NE 1004,3 6
22.01.2019 12:00:00 4,0 2,0 13 7 ENE - 6
22.01.2019 11:00:00 4,0 1,0 21 11 ENE - 10
22.01.2019 10:00:00 4,2 0,0 22 12 ENE 1006,6 10
22.01.2019 09:00:00 5,0 -1,0 26 14 ENE - 10
22.01.2019 08:00:00 5,0 -1,0 21 11 E - 10
22.01.2019 07:00:00 4,5 -1,3 22 12 ENE 1008,1 20
22.01.2019 06:00:00 4,0 -1,0 21 11 ENE - 10
22.01.2019 05:00:00 4,0 -1,0 24 13 ENE - 10
22.01.2019 04:00:00 3,8 -0,3 22 12 ENE 1009,9 10
22.01.2019 03:00:00 4,0 0,0 21 11 ENE - 10
22.01.2019 02:00:00 3,0 1,0 22 12 ENE - 10
22.01.2019 01:00:00 3,7 1,4 22 12 ENE 1012,0 20
22.01.2019 00:00:00 4,0 1,0 21 11 ENE - 10
21.01.2019 23:00:00 4,0 1,0 18 10 ENE - 10
21.01.2019 22:00:00 3,3 1,2 21 11 E 1013,1 10
21.01.2019 21:00:00 4,0 1,0 22 12 ENE - 10
21.01.2019 20:00:00 4,0 0,0 22 12 E - 10
21.01.2019 19:00:00 4,1 0,6 22 12 ENE 1013,3 30
21.01.2019 18:00:00 4,0 1,0 18 10 ENE - 10
21.01.2019 17:00:00 4,0 2,0 18 10 ENE - 10
21.01.2019 16:00:00 4,1 2,1 14 8 ENE 1014,2 8
21.01.2019 15:00:00 4,0 2,0 11 6 ENE - 8
21.01.2019 14:00:00 5,0 2,0 13 7 ENE - 10
21.01.2019 13:00:00 4,4 1,6 18 10 ENE 1014,6 15
21.01.2019 12:00:00 4,0 2,0 21 11 ENE - 10
21.01.2019 11:00:00 4,0 2,0 21 11 ENE - 10
21.01.2019 10:00:00 3,8 1,5 18 10 ENE 1015,8 15
21.01.2019 09:00:00 4,0 1,0 18 10 ENE - 10
21.01.2019 08:00:00 5,0 0,0 18 10 ENE - 10
21.01.2019 07:00:00 4,2 1,2 18 10 ENE 1015,0 20
21.01.2019 06:00:00 4,0 2,0 16 9 ENE - 10
21.01.2019 05:00:00 4,0 1,0 16 9 ENE - 10
21.01.2019 04:00:00 5,2 0,4 14 8 E 1015,2 20
21.01.2019 03:00:00 5,0 2,0 9 5 E - 10
21.01.2019 02:00:00 4,0 2,0 0 0 N - 10
21.01.2019 01:00:00 3,7 1,4 4 2 NW 1015,8 20
21.01.2019 00:00:00 4,0 1,0 4 2 - - 10
20.01.2019 23:00:00 4,0 1,0 4 2 - - 10
20.01.2019 22:00:00 5,2 0,8 4 2 SSE 1015,6 30
20.01.2019 21:00:00 6,0 1,0 5 3 E - 10
20.01.2019 20:00:00 4,0 1,0 5 3 NE - 10
20.01.2019 19:00:00 3,8 0,5 0 0 N 1015,3 30
20.01.2019 18:00:00 4,0 1,0 4 2 - - 10
20.01.2019 17:00:00 6,0 0,0 2 1 - - 10
20.01.2019 16:00:00 7,9 -0,8 7 4 NW 1014,6 30
20.01.2019 15:00:00 9,0 0,0 11 6 NNW - 10
20.01.2019 14:00:00 10,0 0,0 11 6 NW - 10
20.01.2019 13:00:00 8,6 -0,2 11 6 NW 1014,7 30
20.01.2019 12:00:00 8,0 1,0 9 5 NW - 10
20.01.2019 11:00:00 6,0 1,0 2 1 - - 10
20.01.2019 10:00:00 2,9 -0,3 7 4 SE 1015,1 20
20.01.2019 09:00:00 0,0 -1,0 9 5 SE - 10
20.01.2019 08:00:00 -1,0 -2,0 2 1 E - 10
20.01.2019 07:00:00 -1,7 -3,0 0 0 N 1014,1 20
20.01.2019 06:00:00 -1,0 -3,0 4 2 - - 10
20.01.2019 05:00:00 1,0 -2,0 8 4 SE - 10
20.01.2019 04:00:00 -1,5 -3,0 2 1 - 1014,1 10
20.01.2019 03:00:00 -1,0 -3,0 4 2 - - 10
20.01.2019 02:00:00 1,0 -2,0 5 3 ENE - 10
20.01.2019 01:00:00 2,3 -1,5 7 4 E 1014,3 30
20.01.2019 00:00:00 1,0 -2,0 9 5 ESE - 10
19.01.2019 23:00:00 0,0 -2,0 8 4 SE - 10
19.01.2019 22:00:00 0,3 -2,2 0 0 N 1014,6 30
19.01.2019 21:00:00 4,0 -1,0 8 4 SE - 10
19.01.2019 20:00:00 5,0 -1,0 11 6 E - 10
19.01.2019 19:00:00 5,1 -1,0 9 5 E 1014,1 10
19.01.2019 18:00:00 6,0 0,0 8 4 E - 10
19.01.2019 17:00:00 6,0 0,0 8 4 ENE - 10
19.01.2019 16:00:00 7,3 -0,4 11 6 E 1014,0 20
19.01.2019 15:00:00 8,0 0,0 9 5 E - 10
19.01.2019 14:00:00 10,0 1,0 9 5 NE - 10
19.01.2019 13:00:00 9,8 0,4 14 8 E 1014,5 20
19.01.2019 12:00:00 9,0 0,0 18 10 E - 10
19.01.2019 11:00:00 8,0 0,0 15 8 ENE - 10
19.01.2019 10:00:00 5,6 0,3 11 6 ENE 1015,6 20
19.01.2019 09:00:00 6,0 -1,0 11 6 ENE - 10
19.01.2019 08:00:00 5,0 -2,0 5 3 ENE - 10
19.01.2019 07:00:00 3,8 -1,8 4 2 N 1014,9 30
19.01.2019 06:00:00 4,0 -2,0 11 6 ENE - 10
19.01.2019 05:00:00 3,0 -2,0 9 5 NW - 10
19.01.2019 04:00:00 5,4 -1,7 14 8 E 1014,9 30
19.01.2019 03:00:00 5,0 -2,0 15 8 ENE - 10
19.01.2019 02:00:00 6,0 -2,0 21 11 ENE - 10
19.01.2019 01:00:00 5,2 -1,3 18 10 E 1015,2 30
19.01.2019 00:00:00 5,0 -1,0 21 11 E - 10
18.01.2019 23:00:00 5,0 0,0 24 13 ENE - 10
18.01.2019 22:00:00 4,1 1,2 25 14 ENE 1015,0 20
18.01.2019 21:00:00 4,0 2,0 22 12 E - 10
18.01.2019 20:00:00 4,0 4,0 15 8 ENE - 10
18.01.2019 19:00:00 4,4 2,9 11 6 N 1016,0 5
18.01.2019 18:00:00 5,0 2,0 22 12 ENE - 10
18.01.2019 17:00:00 5,0 3,0 21 11 ENE - 10
18.01.2019 16:00:00 5,9 4,8 11 6 NE 1014,1 10
18.01.2019 15:00:00 7,0 3,0 16 9 ENE - 10
18.01.2019 14:00:00 9,0 4,0 16 9 E - 10
18.01.2019 13:00:00 11,5 8,6 8 4 ENE 1012,3 10
18.01.2019 12:00:00 11,0 9,0 5 3 E - 10
18.01.2019 11:00:00 11,0 9,0 8 4 SE - 10
18.01.2019 10:00:00 10,6 8,6 11 6 S 1012,7 10
18.01.2019 09:00:00 10,0 8,0 11 6 SSE - 10
18.01.2019 08:00:00 10,0 7,0 9 5 SSE - 10
18.01.2019 07:00:00 11,2 7,4 18 10 S 1011,1 30
18.01.2019 06:00:00 11,0 8,0 18 10 SSE - 10
18.01.2019 05:00:00 11,0 7,0 21 11 S - 10
18.01.2019 04:00:00 9,3 6,0 11 6 SE 1011,5 30
18.01.2019 03:00:00 10,0 6,0 16 9 ESE - 10
18.01.2019 02:00:00 10,0 6,0 16 9 SE - 10
18.01.2019 01:00:00 9,0 5,7 18 10 ESE 1013,1 30
18.01.2019 00:00:00 10,0 5,0 16 9 ESE - 10
17.01.2019 23:00:00 9,0 4,0 21 11 ESE - 10
17.01.2019 22:00:00 9,3 4,0 22 12 ESE 1014,7 30
17.01.2019 21:00:00 10,0 4,0 18 10 ESE - 10
17.01.2019 20:00:00 10,0 5,0 24 13 SE - 10
17.01.2019 19:00:00 9,8 4,6 22 12 SE 1015,4 30
17.01.2019 18:00:00 10,0 4,0 16 9 SE - 10
17.01.2019 17:00:00 10,0 5,0 22 12 SSE - 10
17.01.2019 16:00:00 11,4 5,7 25 14 SSE 1015,5 30
17.01.2019 15:00:00 12,0 7,0 29 16 SSE - 10
17.01.2019 14:00:00 12,0 6,0 34 18 SSE - 10
17.01.2019 13:00:00 12,9 6,8 36 19 SSE 1016,7 30
17.01.2019 12:00:00 12,0 6,0 37 20 SSE - 10
17.01.2019 11:00:00 12,0 6,0 24 13 SSE - 10
17.01.2019 10:00:00 9,5 5,0 24 13 SSE 1018,8 10
17.01.2019 09:00:00 6,0 4,0 11 6 SE - 10
17.01.2019 08:00:00 4,0 3,0 11 6 SE - 10
17.01.2019 07:00:00 4,0 2,6 14 8 SE 1019,1 20
17.01.2019 06:00:00 5,0 3,0 13 7 ESE - 10
17.01.2019 05:00:00 5,0 3,0 13 7 SE - 10
17.01.2019 04:00:00 3,8 2,5 11 6 SE 1020,0 20
17.01.2019 03:00:00 4,0 2,0 13 7 SE - 10

tt = temperature
td = dewpoint
ff = wind speed
dd = wind direction
ppp = reduced air pressure
vv = visibility

Next stations